World > North America > United States > Illinois

Cache, Illinois Regional Weather

Lat: 37.10N, Lon: 89.26W
Wx Zone: ILZ092Web Search
Cache Weather Warning NWS WEATHER ALERT FOR THE CACHE, IL AREA - Issued: 1204 PM CST Tue Mar 2 2021 Cache Weather Warning  

If you are on your PC, you can easily pass this page to your phone by scanning the QR Code near the bottom with your camera.

Feedback
Cache Weather Map
UTC Time: 3/2/2021, 23:11
Your Time:

Cache, IL Regional Weather

Expires:202103030000;;380444
ASUS43 KLOT 022308
RWRIL 

ILLINOIS REGIONAL WEATHER ROUNDUP
NATIONAL WEATHER SERVICE CHICAGO/ROMEOVILLE IL
500 PM CST TUE MAR 02 2021

NOTE: "FAIR" INDICATES FEW OR NO CLOUDS BELOW 12,000 FEET WITH NO
SIGNIFICANT WEATHER AND/OR OBSTRUCTIONS TO VISIBILITY.

* THESE STATIONS ARE NOT UNDER NWS QUALITY CONTROL. THEY ALSO MAY NOT
  REPORT WEATHER SUCH AS PRECIPITATION OR FOG.


ILZ064>066-069>071-074>076-080>082-084>086-088>090-092>094-030000-
SOUTH-CENTRAL ILLINOIS
  
CITY           SKY/WX    TMP DP  RH WIND       PRES   REMARKS
CARBONDALE     CLEAR     52  28  39 CALM      30.14S                  
CAIRO*         CLEAR     50  32  49 MISG      30.16S                  
EFFINGHAM*     CLEAR     48  31  51 CALM      30.14F                  
MARION         CLEAR     52  28  40 CALM      30.14F                  
MT. VERNON     CLEAR     50  32  50 SE5       30.14F                  
CENTRALIA*     CLEAR     51  33  50 CALM      30.12F                  
SALEM*         CLEAR     51  31  46 S5        30.13F                  
$$


SKY/WX - Weather  TMP - Temperature  DP - Dew Point  RH - Relative Humidity
WIND - Wind Direction/Speed PRES - Barometric Pressure VSB - Visibility
WCI - Wind Chill Index E13G22 Wind - East Wind 13 mph/Gusts of 22 mph